星链-34133 (STARLINK-34133)

导读

STARLINK-34133是美国于2025年5月24日发射的星链卫星,隶属于SpaceX公司的星链项目,该项目旨在构建全球卫星互联网星座,为全球各地用户提供高速低延迟的宽带互联网服务,特别是覆盖地面网络难以通达的偏远区域,进一步拓展星链星座的全球服务覆盖范围与网络能力。

基本信息
目录编号:
64143
目录名称:
STARLINK-34133
国际标识:
2025-111W
轨道中心:
EARTH
卫星名称:
星链-34133
卫星全名:
星链-34133 (STARLINK-34133)
卫星状态:
在轨 (已飞行386 天)
发射日期:
2025-05-24 UTC
国别 :
美国 (US)
星等 :
--
轨道信息
数据来源 国际轨道数据
星历时间: 2026-06-12T21:06:18+0800
1天前
查看轨道信息
半长轴: 6861.141km
偏心率: 0.0001809
轨道倾角: 42.983°
近地点辐角 132.776°
升交点赤经 261.882°
平近点角 227.325°
近地点: 481.762km
远地点: 484.246km
周期: 94.266分钟
每日圈数: 15.275951
详细信息
固有亮度:
5
最大亮度:
2.5
卫星平台:
Starlink V1.0
覆盖范围:
全球
运营商:
太空探索技术公司
运营商所在国:
美国
制造商(研发单位):
太空探索技术公司
制造商所在国:
美国
使用方式:
暂无
卫星简介
Starlink 计划是 SpaceX 推出的全球卫星互联网项目,通过发射低轨道卫星,为全球尤其是偏远地区提供高速、低延迟的互联网服务。自 2019 年起,Starlink 已部署数千颗卫星,旨在缩小全球数字鸿沟,推动互联网普及。该项目还为军事、航空等行业提供通信支持,带来广泛经济效益。
2D轨道图
3D轨道图
轨道高度分析图
轨道倾角分析图
轨道综合分析图
查看轨道综合分析图